Weather History for Poplar Bluff, MO

Change the Weather History Date:

Sunday, December 9, 2012

  Actual Average Record
Temperature  
Mean Temperature 57 °F -  
Max Temperature 66 °F 48 °F 71 °F (1923)
Min Temperature 48 °F 29 °F 3 °F (2005)
Degree Days  
Heating Degree Days 8    
Growing Degree Days 7 (Base 50)    
Moisture  
Dew Point 54 °F    
Average Humidity 90    
Maximum Humidity 100    
Minimum Humidity 74    
Precipitation  
Precipitation 0.68 in - - ()
Sea Level Pressure  
Sea Level Pressure 29.80 in    
Wind  
Wind Speed 6 mph (North)    
Max Wind Speed 20 mph    
Max Gust Speed 25 mph    
Visibility 6 miles    
Events Fog , Rain , Thunderstorm    
Averages and records for this station are not official NWS values.
T = Trace of Precipitation, MM = Missing Value Source: NWS Daily Summary

Daily Weather History Graph

Daily Weather History Graph

Search for Another Location

Airport:

Trip Planner

Search our weather history database for the weather conditions in past years. The results will help you decide how hot, cold, wet, or windy it might be!

Date:

Astronomy

Dec. 09, 2012 Rise Set
Actual Time 7:02 AM CST 4:45 PM CST
Civil Twilight 6:33 AM CST 5:13 PM CST
Nautical Twilight 6:01 AM CST 5:46 PM CST
Astronomical Twilight 5:30 AM CST 6:17 PM CST
Moon 2:40 AM CST (12/9) 1:48 PM CST (12/9)
Length of Visible Light 10h 40m
Length of Day
9h 42m
Waning Crescent, 18% of the Moon is Illuminated
Dec 9
Waning Crescent
Dec 13
New
Dec 19
First Quarter
Dec 28
Full
Jan 4
Last Quarter

Hourly Weather History & Observations

Time (CST) Temp. Dew Point Humidity Pressure Visibility Wind Dir Wind Speed Gust Speed Precip Events Conditions
12:40 AM 51.8 °F 48.2 °F 88% 29.88 in 5.0 mi East 4.6 mph - 0.00 in Thunderstorm Overcast
12:53 AM 52.0 °F 48.9 °F 89% 29.88 in 3.0 mi ENE 6.9 mph - 0.01 in Rain , Thunderstorm Rain
1:06 AM 51.8 °F 48.2 °F 88% 29.86 in 4.0 mi East 6.9 mph - 0.01 in Rain Light Rain
1:53 AM 52.0 °F 50.0 °F 93% 29.86 in 3.0 mi ENE 4.6 mph - 0.01 in   Overcast
2:07 AM 51.8 °F 50.0 °F 94% 29.85 in 3.0 mi East 4.6 mph - N/A   Overcast
2:53 AM 52.0 °F 50.0 °F 93% 29.84 in 3.0 mi ENE 4.6 mph - N/A   Overcast
3:13 AM 51.8 °F 51.8 °F 100% 29.83 in 1.8 mi NNE 6.9 mph - 0.05 in Rain Heavy Rain
3:24 AM 51.8 °F 50.0 °F 94% 29.82 in 2.5 mi East 5.8 mph - 0.08 in Rain Light Rain
3:53 AM 53.1 °F 51.1 °F 93% 29.83 in 2.5 mi NE 4.6 mph - 0.09 in Rain Light Rain
4:23 AM 53.6 °F 51.8 °F 94% 29.82 in 1.2 mi ENE 3.5 mph - 0.16 in Rain Heavy Rain
4:39 AM 53.6 °F 51.8 °F 94% 29.82 in 2.5 mi Calm Calm - 0.19 in   Overcast
4:53 AM 52.0 °F 51.1 °F 97% 29.83 in 2.0 mi North 4.6 mph - 0.19 in Rain Light Rain
5:53 AM 53.1 °F 51.1 °F 93% 29.82 in 2.0 mi NNE 3.5 mph - 0.00 in   Overcast
6:26 AM 53.6 °F 51.8 °F 94% 29.82 in 2.0 mi ENE 3.5 mph - N/A   Overcast
6:35 AM 53.6 °F 51.8 °F 94% 29.82 in 2.5 mi NE 3.5 mph - N/A   Overcast
6:53 AM 54.0 °F 52.0 °F 93% 29.83 in 2.0 mi Calm Calm - N/A   Overcast
7:12 AM 53.6 °F 51.8 °F 94% 29.82 in 2.5 mi Calm Calm - N/A   Overcast
7:32 AM 53.6 °F 51.8 °F 94% 29.82 in 1.2 mi NE 4.6 mph - N/A   Overcast
7:53 AM 54.0 °F 53.1 °F 97% 29.83 in 1.5 mi Calm Calm - N/A   Overcast
8:25 AM 55.4 °F 53.6 °F 94% 29.82 in 1.8 mi Calm Calm - N/A   Overcast
8:49 AM 55.4 °F 53.6 °F 94% 29.82 in 1.5 mi North 3.5 mph - N/A   Overcast
8:53 AM 55.9 °F 54.0 °F 93% 29.82 in 1.2 mi North 4.6 mph - N/A   Overcast
9:04 AM 55.4 °F 55.4 °F 100% 29.83 in 0.2 mi Calm Calm - N/A Fog Fog
9:31 AM 57.2 °F 55.4 °F 94% 29.84 in 0.2 mi SSE 4.6 mph - 0.02 in Fog , Rain Rain
9:36 AM 57.2 °F 55.4 °F 94% 29.84 in 0.2 mi SE 4.6 mph - 0.02 in Fog , Rain Light Rain
9:41 AM 57.2 °F 57.2 °F 100% 29.83 in 0.2 mi SE 3.5 mph - 0.03 in Fog , Rain Light Rain
9:47 AM 57.2 °F 57.2 °F 100% 29.83 in 1.0 mi SE 3.5 mph - 0.03 in   Overcast
9:48 AM 57.9 °F 57.0 °F 97% 29.83 in 1.2 mi Calm Calm - 0.03 in   Overcast
9:51 AM 57.2 °F 57.2 °F 100% 29.83 in 1.8 mi SSE 3.5 mph - N/A   Overcast
9:54 AM 59.0 °F 57.2 °F 94% 29.83 in 2.0 mi SE 4.6 mph - 0.00 in Rain Light Rain
10:03 AM 59.0 °F 57.2 °F 94% 29.83 in 3.0 mi SE 5.8 mph - 0.00 in   Mostly Cloudy
10:24 AM 60.8 °F 59.0 °F 94% 29.82 in 5.0 mi SSE 9.2 mph - 0.00 in   Mostly Cloudy
10:35 AM 60.8 °F 59.0 °F 94% 29.82 in 8.0 mi SSE 8.1 mph - 0.00 in   Mostly Cloudy
10:53 AM 61.0 °F 59.0 °F 93% 29.81 in 10.0 mi South 8.1 mph - 0.00 in   Mostly Cloudy
11:18 AM 62.6 °F 59.0 °F 88% 29.80 in 10.0 mi SSW 8.1 mph - N/A   Mostly Cloudy
11:34 AM 64.4 °F 59.0 °F 83% 29.79 in 10.0 mi SSW 10.4 mph - N/A   Mostly Cloudy
11:53 AM 64.9 °F 60.1 °F 84% 29.78 in 10.0 mi South 9.2 mph - N/A   Overcast
12:21 PM 66.2 °F 60.8 °F 83% 29.77 in 10.0 mi SSW 12.7 mph - N/A   Overcast
12:53 PM 64.9 °F 60.1 °F 84% 29.75 in 10.0 mi South 8.1 mph - N/A   Overcast
1:53 PM 64.9 °F 60.1 °F 84% 29.73 in 10.0 mi South 4.6 mph - N/A   Overcast
2:53 PM 66.9 °F 63.0 °F 87% 29.70 in 10.0 mi South 6.9 mph - N/A   Overcast
3:28 PM 66.2 °F 62.6 °F 88% 29.70 in 10.0 mi South 11.5 mph - N/A Thunderstorm Overcast
3:53 PM 66.0 °F 62.1 °F 87% 29.70 in 6.0 mi South 12.7 mph - 0.00 in Rain , Thunderstorm Light Thunderstorms and Rain
4:07 PM 64.4 °F 60.8 °F 88% 29.73 in 2.0 mi WNW 16.1 mph 25.3 mph 0.09 in Rain , Thunderstorm Thunderstorms and Rain
4:12 PM 62.6 °F 57.2 °F 82% 29.73 in 1.0 mi West 15.0 mph 25.3 mph 0.24 in Rain , Thunderstorm Heavy Thunderstorms and Rain
4:22 PM 62.6 °F 57.2 °F 82% 29.73 in 3.0 mi WSW 10.4 mph 18.4 mph 0.30 in Rain , Thunderstorm Light Thunderstorms and Rain
4:38 PM 62.6 °F 57.2 °F 82% 29.73 in 9.0 mi WSW 10.4 mph - 0.32 in Rain , Thunderstorm Light Thunderstorms and Rain
4:53 PM 62.1 °F 59.0 °F 90% 29.74 in 5.0 mi West 8.1 mph - 0.34 in Rain , Thunderstorm Rain
4:59 PM 62.6 °F 59.0 °F 88% 29.74 in 6.0 mi SW 9.2 mph - 0.01 in Rain Light Rain
5:09 PM 62.6 °F 59.0 °F 88% 29.75 in 10.0 mi West 6.9 mph - 0.01 in   Overcast
5:29 PM 60.8 °F 57.2 °F 88% 29.75 in 10.0 mi WNW 10.4 mph - 0.01 in   Overcast
5:43 PM 60.8 °F 55.4 °F 82% 29.76 in 10.0 mi NNW 13.8 mph - 0.01 in   Overcast
5:53 PM 60.1 °F 55.9 °F 86% 29.77 in 10.0 mi NNW 12.7 mph - 0.01 in   Overcast
6:11 PM 60.8 °F 55.4 °F 82% 29.77 in 10.0 mi NNW 9.2 mph - N/A   Overcast
6:21 PM 59.0 °F 55.4 °F 88% 29.77 in 10.0 mi NW 9.2 mph - N/A   Overcast
6:46 PM 57.2 °F 55.4 °F 94% 29.78 in 10.0 mi NW 16.1 mph - N/A   Overcast
6:53 PM 57.9 °F 55.0 °F 90% 29.78 in 10.0 mi NW 12.7 mph - N/A   Overcast
7:53 PM 55.0 °F 52.0 °F 89% 29.81 in 10.0 mi NNW 6.9 mph - N/A   Overcast
8:10 PM 55.4 °F 51.8 °F 88% 29.80 in 10.0 mi NNW 10.4 mph - N/A   Overcast
8:41 PM 53.6 °F 48.2 °F 82% 29.81 in 10.0 mi NW 13.8 mph - N/A   Overcast
8:53 PM 53.1 °F 48.0 °F 83% 29.82 in 10.0 mi NNW 10.4 mph - N/A   Overcast
9:53 PM 51.1 °F 46.0 °F 83% 29.83 in 10.0 mi NNW 13.8 mph - N/A   Overcast
10:18 PM 50.0 °F 44.6 °F 82% 29.84 in 10.0 mi North 19.6 mph - N/A   Overcast
10:44 PM 50.0 °F 42.8 °F 76% 29.84 in 10.0 mi NNW 16.1 mph 25.3 mph N/A   Overcast
10:53 PM 48.9 °F 43.0 °F 80% 29.85 in 10.0 mi NNW 12.7 mph 23.0 mph N/A   Overcast
11:53 PM 48.0 °F 39.9 °F 74% 29.86 in 10.0 mi NW 13.8 mph 20.7 mph N/A   Overcast